Location: Bothwell
(42.3833°S, 147.0000°E)
Time: 17:26:05
(UTC+11:00)

XW-2C - Visible Passes

Search period start: 03 October 2023 00:00
Search period end: 13 October 2023 00:00
Orbit: 469 x 486 km, 97.5° (Epoch: 02 October)

Date Brightness Start Highest point End Pass type
(mag) Time Alt. Az. Time Alt. Az. Time Alt. Az.
03 Oct ? 20:46:08 10° SSW 20:48:32 17° WSW 20:50:55 10° WNW visible
04 Oct ? 05:48:40 10° ENE 05:50:49 15° ESE 05:52:59 10° SSE visible
04 Oct ? 20:18:48 10° S 20:22:08 33° WSW 20:25:24 10° NW visible
05 Oct ? 19:51:54 10° S 19:55:35 73° WSW 19:59:11 10° NNW visible
06 Oct ? 21:00:14 10° SW 21:01:42 12° WSW 21:03:11 10° W visible
07 Oct ? 06:01:12 10° ENE 06:03:57 21° ESE 06:06:45 10° SSE visible
07 Oct ? 20:32:16 10° SSW 20:35:13 23° WSW 20:38:10 10° WNW visible
08 Oct ? 05:36:34 10° ESE 05:37:29 11° ESE 05:38:24 10° SE visible
08 Oct ? 20:05:03 10° S 20:08:36 49° WSW 20:12:07 10° NNW visible
10 Oct ? 20:45:30 10° SSW 20:47:57 17° WSW 20:50:22 10° WNW visible
11 Oct ? 05:48:02 10° E 05:50:07 15° ESE 05:52:14 10° SSE visible
11 Oct ? 20:17:54 10° S 20:21:15 34° WSW 20:24:33 10° NW visible
12 Oct ? 19:50:45 10° S 19:54:26 77° WSW 19:58:02 10° NNW visible
